Vorticity
7 8 8 7 5 4 4 1 -0 -4 -2 -0 5 2 8 43 47 31 12 -0 5 3 4 5 3 3 4 6 6 6 5 4 7 6 5 5 4 4 7 7 9 10 8 7 6 4 6 7 6 6 5 6 6 6 5 5 5 5 5 5 5 5 5 5 5 6 6 6 6 6 5 5 8 8 6 6 5 4 3 1 2 3 3 3 4 6 6 7 8 7 7 5 6 9 10 10 10
7 8 5 6 4 4 5 -2 -4 -5 -4 -1 5 2 15 52 48 22 5 1 5 2 5 4 3 3 6 7 6 7 5 7 8 8 6 5 3 3 6 6 8 10 8 6 6 6 7 7 5 6 6 7 6 5 5 5 5 5 6 5 5 5 5 5 6 6 6 6 7 7 6 6 7 6 6 5 4 4 3 2 2 3 3 5 6 7 8 7 7 6 6 6 7 10 10 12 12
7 8 5 6 4 3 4 -1 -4 -3 -3 -1 7 2 14 34 19 8 3 2 4 3 4 3 4 4 7 7 6 7 5 7 8 7 6 6 4 3 6 6 8 8 7 5 6 6 6 7 6 6 7 7 6 6 6 5 5 6 5 5 5 5 6 6 6 7 7 7 8 7 6 7 7 6 7 5 3 4 4 4 3 2 3 6 7 7 7 7 6 7 8 7 7 9 10 12 13
8 8 6 6 4 4 4 1 0 -0 1 1 7 2 9 22 9 9 5 1 5 4 3 2 4 3 6 6 5 6 4 7 7 6 5 6 6 4 5 5 8 8 7 6 6 6 6 6 6 6 6 6 6 6 5 6 6 5 5 5 5 6 6 6 7 8 8 9 10 9 8 9 8 6 6 5 4 4 5 4 4 4 5 7 8 7 7 6 6 8 9 10 11 11 11 11 11
10 10 9 8 5 5 4 4 4 3 6 6 11 3 11 27 12 9 5 1 6 5 3 2 4 3 5 6 5 5 5 9 9 7 6 6 7 5 5 4 7 9 7 6 7 6 5 5 6 6 5 5 5 5 6 6 6 5 5 5 6 6 6 7 8 9 9 10 10 10 11 10 7 6 6 5 5 5 4 4 5 4 5 8 8 7 7 7 9 10 9 13 15 13 13 12 11
8 8 10 11 9 9 7 6 5 5 7 9 14 6 19 36 13 6 7 0 4 6 4 3 5 5 7 6 4 4 6 9 7 7 8 7 7 6 5 4 6 8 6 5 7 6 4 5 5 5 5 6 5 5 6 6 6 6 7 7 7 6 7 8 9 9 9 9 9 10 11 8 7 11 9 6 6 6 5 5 6 5 6 8 7 7 8 9 11 10 11 15 14 11 12 15 13
5 7 7 8 9 7 7 5 -1 0 10 20 18 11 27 36 14 5 6 -1 3 4 3 4 4 6 6 5 4 5 8 6 5 8 8 7 7 6 6 5 5 7 6 4 6 5 4 4 4 5 5 6 6 7 6 6 7 8 8 7 6 6 7 8 9 8 9 9 10 11 10 8 10 13 11 8 7 6 6 6 6 7 8 7 7 7 8 12 12 10 13 15 14 11 9 15 15
5 7 5 4 5 3 7 4 0 1 17 34 17 17 35 28 12 5 3 -0 3 3 2 5 5 6 5 4 6 7 8 5 7 10 7 8 8 6 6 5 5 7 6 4 5 5 4 3 4 5 6 7 8 8 7 8 8 9 8 6 6 6 7 8 9 9 9 9 9 11 10 10 13 11 9 9 8 6 7 7 9 9 8 7 6 7 8 11 10 9 12 11 12 13 10 12 13
4 4 4 4 5 4 8 7 10 3 15 33 10 20 34 12 7 4 2 -0 1 5 2 6 6 6 6 5 8 6 7 6 8 11 7 8 8 6 6 6 7 7 5 4 4 5 4 4 5 6 8 9 9 8 7 8 8 8 7 7 6 6 7 7 9 9 9 10 9 10 10 10 10 8 8 9 7 6 6 7 9 9 8 7 6 7 9 10 9 8 10 10 9 12 12 11 10
4 4 4 5 6 5 7 5 12 6 11 26 12 26 23 -0 8 5 2 1 1 5 1 5 6 6 8 6 8 7 7 8 8 9 7 6 8 7 5 6 7 9 5 3 4 4 4 4 5 6 8 9 9 7 6 7 7 7 7 7 6 6 7 7 8 9 9 9 9 11 11 10 9 8 9 9 8 8 8 7 7 8 7 6 6 7 9 9 8 8 9 9 8 9 11 10 7
4 5 3 2 5 3 5 2 8 11 9 23 34 37 14 -0 11 7 5 5 3 5 3 5 6 7 7 7 7 8 8 8 9 8 7 6 8 8 5 5 6 10 7 3 4 4 4 4 5 6 8 8 7 6 6 6 6 7 8 7 6 6 6 7 9 9 8 8 9 9 9 11 12 10 9 8 8 8 9 8 7 7 6 5 5 6 8 9 7 7 8 8 8 8 9 8 6
4 5 2 0 3 1 4 0 4 14 14 37 62 42 5 2 8 6 7 4 5 4 5 6 5 8 6 7 7 6 7 7 9 7 7 6 7 9 6 6 6 8 8 4 4 5 5 4 5 6 7 7 5 5 5 5 6 7 8 7 6 6 7 8 9 9 8 8 10 10 10 11 11 10 10 10 9 9 8 8 8 7 5 4 4 6 7 8 7 7 7 7 6 6 7 8 8
5 4 2 1 1 -2 0 -1 -1 11 28 45 49 24 -3 2 3 2 7 2 5 4 5 7 4 7 4 7 6 5 6 6 8 7 7 6 7 9 7 7 6 8 8 5 4 5 5 4 5 6 6 7 5 4 5 6 5 6 7 7 7 7 7 7 8 8 8 8 9 8 9 10 9 9 10 11 9 8 8 8 8 6 5 4 3 4 4 6 8 7 6 7 6 6 8 7 7
4 4 3 3 1 -0 -2 -0 -0 4 41 44 12 9 1 0 3 1 6 3 4 4 4 5 3 5 3 3 5 4 3 5 7 6 7 6 6 8 7 7 6 8 8 5 3 4 5 4 6 6 6 6 5 5 6 6 5 6 6 7 7 8 7 6 7 7 9 10 10 9 9 9 8 9 9 10 9 9 8 7 7 6 4 3 2 3 3 6 7 6 5 6 6 6 6 5 5
4 4 3 4 2 5 -0 0 3 -2 41 49 -1 4 7 -2 6 2 4 4 2 5 5 5 5 5 2 2 5 4 2 4 5 5 7 6 6 7 8 7 6 9 8 5 3 4 5 5 6 6 6 5 5 5 6 6 6 6 6 7 7 7 7 6 7 7 8 8 9 11 10 9 8 8 8 9 8 8 7 7 7 5 4 3 3 3 4 6 6 5 5 5 6 6 5 6 7
4 4 2 6 4 6 2 -3 4 -3 28 55 11 -3 7 1 7 5 1 4 4 6 6 5 6 4 5 6 7 6 3 4 5 5 7 6 5 5 7 8 7 9 9 6 2 3 5 5 6 6 6 5 5 5 6 6 6 6 6 6 7 7 7 6 7 7 8 7 9 10 9 9 8 8 8 7 7 7 7 7 7 5 5 5 4 5 6 7 7 6 6 6 6 6 7 8 9
4 6 3 6 7 4 5 -2 4 2 10 47 32 -2 2 3 4 7 2 5 7 5 6 6 8 6 7 7 4 6 5 5 6 6 7 6 5 5 6 8 7 8 9 7 2 2 5 5 5 6 6 5 5 6 6 6 6 7 6 5 6 6 6 6 6 6 7 8 9 10 9 9 8 8 7 6 6 6 6 6 6 5 5 5 4 6 7 8 8 8 7 8 7 7 7 7 8
3 8 5 4 9 5 5 1 1 4 -1 29 46 10 -1 5 3 6 3 5 6 6 8 6 9 7 5 6 1 6 9 7 8 8 8 6 6 6 6 8 8 8 9 8 3 2 5 6 4 5 7 4 4 6 6 6 6 7 6 5 6 6 6 6 6 5 6 7 8 9 9 8 8 8 7 6 6 6 6 6 6 5 5 5 4 6 7 8 7 7 6 7 7 6 6 5 6
2 4 5 3 8 6 4 3 -3 3 2 17 48 27 -1 5 6 6 4 4 5 6 6 3 5 4 3 6 3 8 12 10 9 7 8 7 7 6 6 9 8 8 10 8 4 2 4 6 4 5 7 5 4 6 7 7 6 7 6 6 6 6 6 7 7 5 6 6 6 8 9 9 8 7 7 6 6 6 6 6 7 6 5 5 4 6 8 7 6 5 5 4 5 4 5 6 6
2 2 5 4 3 5 3 3 -3 -1 6 13 41 35 2 3 7 5 6 4 5 3 2 2 3 3 2 5 5 11 14 10 8 7 7 7 7 7 6 9 9 7 8 10 4 2 4 5 5 5 7 6 4 6 7 6 6 7 6 6 6 7 7 7 6 6 6 5 4 6 7 9 9 9 8 8 7 7 7 7 7 6 6 5 4 6 6 5 4 5 5 5 5 6 7 7 8
3 1 3 5 2 4 3 4 1 -2 5 11 37 35 2 3 6 4 6 4 4 2 4 4 4 5 2 4 6 10 13 8 6 7 6 6 6 5 4 7 11 8 7 11 6 2 4 5 5 6 7 6 5 6 6 6 7 7 7 7 6 7 7 6 5 5 6 6 5 5 5 7 8 8 9 10 9 10 10 9 9 8 8 7 6 6 6 5 6 6 7 7 7 8 8 8 9
3 2 2 5 2 3 3 4 2 -1 0 9 45 45 5 4 6 1 5 5 6 6 7 7 5 4 1 4 5 5 8 6 6 5 4 5 5 4 5 6 10 10 6 10 8 3 4 5 5 6 7 6 5 7 5 6 7 8 9 8 7 6 7 7 6 6 7 7 7 6 5 5 5 6 7 8 9 10 11 11 11 11 11 11 10 9 9 9 9 9 9 9 9 10 9 8 9
3 4 3 4 4 5 4 4 2 3 -0 3 42 43 8 7 7 0 4 5 6 6 8 8 5 5 3 5 7 6 6 6 8 8 8 8 7 7 7 6 10 11 6 9 10 5 4 5 6 6 7 6 5 7 5 6 7 7 8 8 6 5 6 6 6 6 6 7 8 8 7 7 7 6 6 7 8 8 9 10 11 12 12 12 12 11 12 12 12 11 11 11 11 10 9 8 8
5 5 4 4 6 6 5 4 2 6 3 2 25 23 5 11 8 3 5 3 4 6 7 5 4 6 4 5 9 12 9 7 9 9 9 8 9 8 5 6 12 13 7 7 10 6 4 5 6 6 7 6 5 6 5 5 6 6 6 7 6 5 4 4 5 6 6 7 8 9 9 8 8 8 7 6 7 7 7 8 9 10 10 11 12 12 13 13 12 12 11 11 11 10 9 8 7
6 5 4 5 6 5 5 3 3 8 5 8 22 15 7 11 6 4 4 2 5 5 6 6 5 5 4 6 8 10 9 7 6 6 6 5 6 7 5 7 12 14 8 7 9 7 4 4 6 8 7 6 5 5 6 5 5 5 5 6 6 6 4 2 4 6 6 7 8 8 8 8 8 8 8 6 6 6 6 7 8 9 9 10 11 11 11 12 12 12 12 11 10 10 9 8 7
7 5 4 5 5 3 3 2 4 8 4 9 20 12 7 8 4 4 3 3 6 5 6 8 7 4 4 7 6 6 7 7 5 6 7 5 6 6 6 7 10 14 9 6 9 7 5 3 6 9 7 6 5 5 5 5 5 5 5 5 6 6 4 2 4 6 6 7 8 7 7 9 9 7 7 7 6 5 5 6 7 8 9 10 10 10 10 10 10 11 11 10 10 9 8 7 6
7 6 4 4 4 3 2 3 4 6 3 7 13 9 8 7 4 5 3 3 5 5 6 8 8 5 4 6 5 5 7 9 8 7 8 6 6 6 5 6 10 14 9 6 8 7 5 3 5 8 9 6 5 6 5 5 5 5 5 5 5 6 5 4 5 6 7 7 7 7 7 9 9 8 6 7 6 5 5 6 6 7 8 9 9 9 9 8 8 8 8 8 8 8 7 7 7
8 6 5 5 4 3 3 4 4 6 4 3 6 9 13 11 7 5 2 4 4 4 7 8 8 6 5 6 5 4 6 10 9 7 9 9 7 7 7 7 10 13 9 7 7 7 6 4 5 7 9 7 5 7 6 5 5 5 5 5 5 6 6 7 7 7 7 7 7 6 6 8 9 8 7 7 6 5 4 5 6 7 7 7 7 7 7 7 7 7 7 7 7 6 6 7 7
9 6 6 5 4 4 4 5 4 6 6 3 2 9 21 17 8 5 2 4 4 2 7 9 8 7 6 6 5 4 5 9 9 7 9 11 10 10 9 7 10 12 9 8 7 7 6 4 4 6 10 8 5 6 6 5 5 5 5 5 6 6 7 7 8 8 5 6 7 6 6 6 7 7 7 7 6 5 4 4 5 6 7 7 7 6 6 6 6 7 6 6 6 6 6 7 7
9 7 6 6 6 6 5 5 4 4 5 6 3 10 24 19 5 4 4 4 3 3 7 8 8 8 5 5 5 4 5 7 8 7 6 9 10 9 9 6 8 11 9 9 9 7 5 5 4 5 10 9 4 5 6 5 5 5 6 6 6 7 7 7 7 8 6 5 6 6 5 6 6 6 7 7 6 4 3 3 4 5 6 6 6 6 6 6 6 7 6 6 6 5 6 6 6
8 6 6 6 6 7 7 5 4 5 6 7 6 9 16 12 3 5 6 3 2 3 6 7 8 8 5 4 4 5 7 7 7 8 7 7 8 9 9 6 7 10 9 9 11 10 6 5 5 4 8 10 5 4 6 5 5 5 6 6 5 6 7 7 7 7 7 6 5 5 5 6 6 6 6 7 7 5 4 3 3 4 5 5 6 6 7 7 7 7 6 6 5 5 6 6 6
5 5 6 7 6 6 8 7 3 4 6 5 7 10 9 7 9 11 8 4 2 3 6 8 8 7 6 4 4 6 8 7 7 9 9 6 7 8 7 7 8 10 9 8 11 13 8 4 5 4 6 10 5 4 5 4 4 5 5 5 4 6 7 7 6 6 6 6 6 5 5 6 6 6 5 6 7 7 6 4 3 3 3 3 5 5 6 6 7 7 7 6 6 6 6 5 6
4 5 6 7 7 7 7 8 4 4 6 4 7 13 10 9 13 10 4 2 1 2 3 5 7 7 7 6 6 7 7 7 6 7 8 6 7 8 8 9 8 8 9 8 10 15 12 5 4 4 5 8 7 5 5 4 4 5 5 5 4 6 9 9 7 6 6 6 6 6 6 6 6 6 5 5 6 7 8 7 5 4 2 2 3 4 4 5 5 6 7 7 7 6 6 6 6
4 4 6 7 7 7 7 6 6 5 7 6 7 11 11 13 13 5 1 1 2 3 1 1 3 6 8 8 8 6 5 6 6 6 6 6 6 6 8 10 8 8 10 9 10 16 15 6 4 5 5 7 7 5 5 5 4 4 5 5 5 7 10 9 7 6 6 6 7 7 7 6 6 6 5 5 5 6 6 7 7 7 5 3 3 3 4 3 3 4 5 6 6 7 6 6 6
4 4 5 8 8 7 7 6 7 7 7 9 9 7 10 15 11 0 -1 2 3 5 5 3 2 3 6 6 6 6 5 6 7 8 8 6 5 5 7 9 8 8 9 9 9 14 16 9 5 6 5 7 8 6 5 5 4 4 5 5 4 7 9 8 7 6 6 6 6 7 8 7 7 6 6 6 5 5 5 5 6 7 7 6 5 5 5 4 4 3 3 4 5 5 6 7 6
5 6 6 7 8 7 6 5 6 7 7 9 8 5 6 8 3 -1 2 3 3 5 5 4 1 2 4 5 5 5 6 8 8 10 11 8 6 5 6 8 8 8 9 9 8 11 15 9 5 6 5 6 8 6 5 5 4 4 5 5 5 6 8 8 7 6 6 6 6 7 8 8 7 7 7 6 6 6 6 6 5 6 6 6 6 5 5 5 5 5 4 4 4 5 6 7 7
7 7 7 7 7 7 6 4 4 7 8 8 7 6 5 4 1 -0 3 4 3 3 2 1 -0 -0 2 2 4 6 8 9 10 11 11 10 9 7 7 7 8 8 8 9 8 9 14 11 5 5 6 7 8 6 5 4 4 5 6 5 5 7 8 7 7 7 7 7 7 7 8 8 7 7 7 7 7 7 8 8 7 6 6 6 5 5 5 5 5 6 6 5 5 6 7 8 8
9 8 8 8 7 7 5 3 3 4 8 9 8 9 7 5 3 -1 1 5 4 1 0 -0 -2 -3 0 2 3 6 7 5 7 10 10 10 10 8 7 7 7 7 8 9 8 8 13 13 8 4 5 8 8 6 5 4 3 5 8 7 6 8 9 8 7 8 7 7 7 7 7 7 7 7 7 8 8 8 10 10 9 8 8 7 6 6 5 5 5 6 7 6 6 6 7 7 8
9 9 9 9 7 7 5 4 4 3 6 9 9 9 7 6 6 2 1 4 3 2 2 1 -0 0 0 3 4 2 4 4 3 8 9 8 8 7 6 7 6 7 7 9 10 8 11 14 11 5 5 8 8 6 5 4 4 7 8 8 8 9 10 8 6 7 7 6 6 7 8 7 6 7 7 7 8 9 10 11 10 9 10 9 9 9 8 7 7 7 8 8 8 7 7 7 7
9 8 9 9 8 7 4 4 5 3 5 7 8 9 8 7 8 5 2 1 0 3 5 2 2 5 2 1 5 2 0 3 3 5 8 8 8 6 5 6 7 6 6 7 9 9 9 12 13 9 6 9 9 7 4 3 5 7 7 8 8 7 8 8 8 9 7 6 6 7 7 7 6 7 7 7 8 9 8 8 8 9 9 10 10 11 10 10 9 9 9 8 8 8 8 8 8
8 8 9 9 9 6 3 4 5 4 5 6 8 9 10 10 9 7 4 4 3 5 8 5 2 8 10 8 9 9 6 6 6 6 6 7 6 5 5 6 6 5 6 5 7 8 8 10 14 12 9 10 10 7 4 2 4 7 7 7 7 6 7 8 9 9 8 6 6 7 7 6 6 6 7 8 8 8 7 7 7 7 8 9 10 10 10 10 11 10 9 8 8 8 8 9 8
7 8 9 10 9 5 2 4 5 6 5 5 8 9 10 12 11 8 8 9 9 9 8 7 5 8 12 9 6 7 9 8 9 9 7 6 5 4 6 6 5 5 6 6 6 8 7 9 14 15 12 12 11 7 4 3 3 6 6 6 5 5 7 8 9 9 8 6 6 7 7 6 6 7 7 7 7 7 7 7 7 8 8 8 8 9 9 10 10 9 8 8 8 8 8 9 8
7 7 9 9 9 7 4 4 6 5 4 5 7 7 9 11 8 7 10 11 11 12 9 8 11 9 6 6 3 2 5 7 9 9 9 10 9 8 8 7 5 5 6 6 6 7 7 7 12 16 14 12 12 9 5 4 4 5 6 5 4 6 8 8 8 9 8 7 6 6 6 7 7 6 6 6 6 7 7 7 8 8 8 8 8 8 9 9 8 8 8 7 7 8 9 9 8
8 9 9 8 9 11 8 6 6 5 3 5 4 6 8 5 3 6 9 9 10 10 8 8 12 9 3 3 3 2 2 6 10 12 10 10 11 11 9 6 4 7 9 7 6 6 6 6 9 14 14 12 12 11 7 4 4 5 5 4 4 8 10 8 9 10 8 7 6 5 6 7 7 6 6 6 6 7 7 7 8 8 8 8 8 7 8 8 7 6 7 6 6 8 9 9 8
7 8 9 8 9 13 12 9 7 5 5 5 3 5 7 1 1 6 5 7 11 9 8 9 7 4 2 1 3 3 3 5 8 12 10 7 7 7 7 5 5 8 10 9 7 6 6 6 8 12 14 12 12 12 8 5 5 4 4 5 7 10 10 8 9 11 9 7 5 5 5 6 8 6 5 6 6 6 7 6 7 8 8 7 7 7 6 6 6 5 6 7 8 8 9 8 7
6 7 8 9 10 12 15 12 9 6 5 5 3 4 6 2 1 4 3 7 12 9 8 9 7 7 4 -0 -1 0 3 4 5 8 9 7 6 6 5 4 6 9 10 10 11 10 7 7 8 11 13 12 11 12 8 4 4 3 4 10 12 11 9 7 8 10 10 8 5 4 5 6 8 7 4 6 6 5 6 6 7 7 7 7 6 6 5 4 5 6 8 10 9 8 7 7 7
5 5 6 8 9 11 14 14 11 9 6 4 4 3 5 4 0 1 4 7 8 7 8 8 9 12 9 5 4 1 1 2 3 6 7 5 7 10 8 5 6 9 10 11 14 13 8 6 8 11 13 12 11 12 8 3 3 2 4 10 12 9 8 7 8 9 10 8 5 4 4 5 7 6 5 5 6 6 6 7 7 7 7 6 5 5 4 4 6 8 10 9 8 7 7 8 9
4 4 4 6 8 8 10 12 12 11 7 6 5 2 4 4 0 1 4 5 5 7 11 10 9 12 9 7 9 7 6 5 3 6 8 4 5 11 11 7 6 8 8 11 14 15 11 6 7 12 13 12 11 10 7 4 2 2 4 8 9 7 6 7 8 9 9 8 6 5 5 5 6 7 5 5 7 6 6 7 7 7 7 6 5 4 4 6 7 8 8 7 7 8 9 9 10
5 3 3 5 7 7 8 10 11 12 11 9 5 2 4 4 2 2 2 3 4 6 12 11 8 12 10 6 6 4 5 6 4 5 7 6 6 9 11 9 8 8 8 10 11 13 13 8 6 10 13 12 10 9 7 4 2 2 4 7 7 5 4 6 8 10 9 8 6 5 5 6 7 8 6 6 8 7 7 8 7 7 7 6 5 6 7 9 8 7 6 6 7 9 10 10 11
10 6 3 4 6 5 7 8 9 13 13 10 6 4 5 4 3 3 1 2 3 6 12 11 7 12 11 6 4 2 1 2 1 3 5 8 11 11 8 7 7 7 8 8 8 9 12 11 7 8 12 12 10 9 7 4 2 2 5 7 7 4 4 5 8 9 9 8 6 4 4 5 8 10 8 7 8 7 7 8 8 7 6 5 6 8 9 9 7 7 6 6 7 8 9 10 10
14 9 5 5 6 5 7 7 8 13 15 11 8 7 6 5 4 4 2 0 3 7 12 10 8 11 10 4 3 3 3 3 1 2 4 8 13 12 7 5 4 5 6 6 6 7 9 13 9 6 10 12 11 9 7 5 3 2 5 8 7 4 4 6 7 9 10 9 7 5 3 4 9 13 10 7 8 8 9 10 9 8 7 7 8 9 9 7 6 6 6 7 7 8 9 9 9
13 10 6 4 5 4 6 8 8 12 13 11 8 7 8 8 6 5 2 -1 3 8 10 8 8 11 8 2 2 3 4 6 4 3 5 7 8 8 8 7 3 2 5 5 6 6 7 11 12 8 7 10 11 9 6 5 4 3 4 7 8 4 3 5 6 7 9 10 9 6 4 5 10 13 9 6 7 9 11 11 10 9 9 9 9 8 7 6 6 6 6 7 7 8 9 8 8
10 10 9 7 6 5 5 6 7 9 8 7 7 6 7 9 8 9 6 3 7 9 6 6 7 11 11 3 -1 2 6 11 8 4 6 9 8 5 5 8 6 2 3 4 5 6 4 7 11 11 7 7 11 12 8 5 5 4 4 6 8 5 2 4 6 7 9 10 10 8 6 8 9 9 7 6 8 10 11 11 9 9 9 9 8 7 6 6 6 6 7 7 7 8 9 9 8
8 9 11 10 7 5 6 5 4 5 5 4 6 6 5 7 9 11 10 8 9 9 8 8 5 7 13 9 -1 -4 3 12 12 7 4 6 12 10 3 5 8 3 0 1 2 4 4 4 9 12 10 6 7 11 10 7 5 5 5 5 7 6 4 4 6 8 8 8 11 10 9 9 7 6 6 6 8 10 11 10 8 8 8 8 7 7 6 6 6 6 7 7 7 7 8 9 8
7 8 10 11 7 5 7 6 3 4 4 3 5 5 4 6 7 8 9 9 8 6 7 9 7 5 11 12 3 -5 -3 4 10 11 6 3 11 15 6 3 6 5 4 1 0 3 4 5 8 12 14 8 5 7 9 8 6 5 5 5 7 7 5 5 6 8 7 7 10 11 10 8 5 5 5 5 8 10 11 9 8 8 8 7 6 7 7 6 6 6 6 7 7 7 8 8 7
8 8 8 8 7 7 7 5 3 3 3 1 2 4 6 7 5 5 7 9 9 7 4 4 4 6 11 12 5 -1 -2 -0 5 11 9 5 9 15 11 4 3 6 6 4 4 4 4 5 7 10 15 13 7 6 8 9 7 6 6 6 6 6 5 4 5 6 7 7 9 11 11 8 5 4 5 6 8 10 10 8 7 7 7 7 7 7 7 7 6 6 6 7 7 7 8 8 7
8 8 8 7 7 8 7 6 4 2 2 1 -1 -0 2 5 8 8 7 6 7 9 9 5 0 4 12 11 5 1 0 0 4 8 9 8 9 13 12 5 3 5 4 5 6 4 3 4 4 7 12 16 13 8 7 8 8 6 6 6 6 6 6 5 4 5 6 6 8 10 10 8 6 5 5 6 8 10 10 8 7 7 7 7 7 7 8 7 7 7 7 7 8 9 9 8 7
9 8 9 8 7 7 7 8 6 4 2 2 1 -0 -1 1 5 8 8 5 3 6 11 10 5 5 10 9 5 5 3 2 4 5 6 8 10 13 13 6 4 6 4 5 5 4 5 4 1 3 8 12 14 12 7 7 8 7 5 6 6 6 6 6 5 5 5 5 6 9 10 9 7 6 5 6 9 10 9 7 7 8 8 8 8 8 8 7 7 7 7 7 8 9 10 9 9
Height
5897 5898 5898 5899 5900 5901 5901 5902 5902 5902 5902 5901 5901 5900 5898 5896 5895 5898 5900 5901 5902 5903 5904 5905 5906 5905 5905 5904 5904 5904 5905 5905 5906 5906 5906 5907 5908 5908 5909 5909 5910 5910 5911 5911 5912 5912 5913 5913 5914 5914 5914 5914 5914 5914 5914 5914 5915 5915 5914 5914 5913 5913 5913 5913 5912 5912 5912 5912 5913 5913 5913 5914 5915 5914 5914 5914 5914 5916 5916 5916 5916 5915 5915 5914 5915 5914 5914 5913 5915 5916 5915 5914 5914 5914 5915 5918 5919
5897 5898 5899 5900 5900 5901 5901 5902 5901 5901 5901 5901 5901 5900 5898 5896 5895 5898 5900 5901 5902 5904 5905 5906 5906 5905 5905 5905 5905 5905 5906 5906 5907 5907 5907 5908 5908 5908 5909 5910 5910 5911 5911 5912 5912 5913 5914 5914 5915 5915 5915 5915 5915 5915 5916 5916 5916 5916 5915 5914 5914 5914 5914 5914 5913 5913 5913 5913 5914 5914 5914 5915 5915 5915 5914 5914 5913 5914 5916 5916 5916 5914 5913 5915 5917 5916 5915 5916 5917 5916 5915 5915 5915 5914 5915 5918 5918
5897 5898 5899 5900 5900 5901 5901 5901 5901 5901 5901 5901 5901 5900 5900 5899 5898 5899 5900 5902 5903 5904 5905 5906 5906 5906 5905 5905 5905 5906 5906 5907 5908 5908 5908 5909 5909 5909 5910 5910 5910 5911 5912 5913 5913 5914 5915 5915 5916 5916 5916 5916 5916 5916 5917 5917 5917 5916 5915 5915 5914 5915 5915 5914 5914 5914 5914 5914 5915 5915 5915 5916 5916 5915 5915 5914 5913 5915 5917 5917 5917 5916 5915 5918 5920 5918 5917 5918 5918 5918 5918 5917 5917 5915 5914 5916 5917
5898 5898 5899 5899 5900 5901 5901 5901 5901 5900 5900 5900 5900 5900 5900 5900 5900 5900 5901 5902 5903 5905 5905 5906 5906 5906 5906 5906 5906 5906 5907 5908 5909 5909 5909 5909 5910 5909 5910 5911 5911 5912 5913 5914 5914 5915 5916 5916 5917 5917 5917 5917 5917 5917 5917 5917 5917 5916 5916 5916 5916 5916 5915 5915 5915 5915 5915 5915 5916 5916 5915 5915 5914 5915 5915 5915 5915 5916 5918 5918 5918 5919 5919 5920 5923 5921 5919 5918 5918 5919 5919 5919 5918 5917 5917 5917 5917
5898 5898 5899 5899 5900 5900 5900 5900 5900 5900 5900 5900 5900 5900 5900 5899 5900 5901 5902 5903 5904 5905 5905 5906 5906 5906 5906 5906 5906 5907 5908 5909 5909 5910 5910 5910 5910 5910 5911 5912 5912 5913 5914 5915 5915 5916 5916 5917 5918 5917 5917 5917 5917 5917 5918 5918 5917 5917 5917 5917 5917 5917 5916 5916 5916 5916 5916 5916 5916 5916 5914 5913 5914 5916 5917 5916 5916 5917 5918 5918 5919 5920 5920 5921 5923 5922 5920 5919 5918 5919 5919 5919 5919 5919 5919 5919 5918
5898 5898 5899 5899 5899 5900 5900 5900 5900 5900 5899 5899 5899 5899 5898 5898 5899 5900 5902 5903 5904 5905 5906 5906 5907 5907 5907 5906 5907 5908 5908 5909 5910 5911 5911 5910 5910 5910 5911 5911 5912 5913 5915 5916 5916 5917 5917 5918 5918 5917 5918 5918 5918 5918 5918 5918 5918 5918 5918 5918 5918 5918 5917 5917 5917 5916 5916 5916 5916 5915 5913 5914 5917 5919 5919 5918 5917 5917 5918 5918 5919 5919 5920 5922 5922 5921 5920 5919 5919 5919 5918 5918 5918 5918 5919 5921 5920
5898 5898 5899 5899 5899 5899 5899 5899 5900 5899 5898 5897 5897 5897 5897 5897 5899 5900 5902 5903 5904 5905 5906 5907 5907 5907 5907 5907 5907 5908 5909 5909 5910 5912 5912 5911 5910 5911 5911 5911 5912 5913 5915 5916 5917 5917 5918 5918 5918 5918 5918 5918 5918 5919 5919 5919 5919 5919 5919 5919 5919 5919 5918 5918 5917 5917 5917 5917 5916 5915 5914 5916 5920 5920 5920 5919 5918 5918 5918 5919 5920 5920 5921 5922 5922 5920 5919 5919 5920 5919 5918 5918 5919 5918 5918 5921 5922
5898 5898 5898 5898 5898 5898 5899 5899 5899 5898 5897 5895 5895 5896 5896 5896 5899 5901 5902 5903 5904 5905 5906 5907 5907 5908 5908 5908 5908 5908 5909 5909 5911 5912 5912 5912 5911 5911 5912 5912 5913 5914 5915 5916 5917 5917 5918 5918 5918 5919 5919 5919 5919 5920 5920 5920 5920 5920 5920 5920 5920 5919 5919 5918 5918 5917 5917 5917 5916 5915 5915 5918 5921 5920 5919 5919 5918 5919 5919 5920 5921 5922 5922 5923 5922 5921 5919 5920 5920 5919 5919 5919 5920 5921 5921 5922 5923
5897 5897 5897 5897 5898 5898 5899 5899 5898 5897 5896 5895 5895 5895 5896 5897 5899 5901 5902 5903 5904 5905 5906 5907 5908 5908 5909 5909 5909 5909 5910 5910 5911 5912 5913 5913 5912 5912 5913 5914 5914 5915 5916 5917 5918 5918 5919 5919 5920 5920 5920 5920 5920 5920 5920 5920 5921 5921 5921 5920 5920 5920 5919 5919 5918 5918 5917 5918 5917 5917 5917 5920 5921 5921 5920 5920 5920 5920 5921 5921 5922 5923 5923 5923 5923 5922 5921 5922 5922 5921 5921 5921 5922 5923 5923 5924 5923
5897 5896 5896 5897 5898 5899 5899 5898 5898 5896 5895 5894 5894 5895 5896 5898 5900 5902 5903 5904 5905 5905 5906 5907 5908 5909 5909 5910 5910 5910 5911 5911 5912 5913 5913 5913 5913 5913 5914 5914 5915 5916 5917 5918 5919 5920 5920 5921 5921 5921 5921 5921 5921 5921 5921 5921 5921 5921 5921 5921 5921 5920 5920 5920 5919 5918 5918 5918 5918 5918 5918 5920 5922 5922 5922 5921 5921 5922 5923 5923 5924 5924 5924 5924 5924 5924 5924 5925 5926 5925 5924 5925 5924 5924 5925 5925 5923
5896 5896 5897 5898 5899 5899 5899 5898 5897 5895 5894 5892 5892 5894 5896 5898 5900 5902 5903 5904 5905 5906 5906 5907 5908 5909 5910 5910 5911 5911 5911 5912 5912 5913 5913 5914 5914 5914 5914 5914 5915 5916 5917 5918 5920 5921 5921 5921 5922 5921 5921 5921 5921 5921 5922 5922 5922 5922 5922 5922 5921 5921 5921 5921 5920 5920 5919 5919 5919 5919 5919 5920 5921 5922 5922 5922 5923 5924 5924 5924 5925 5925 5925 5926 5926 5927 5927 5928 5928 5927 5926 5926 5926 5926 5926 5926 5926
5896 5896 5897 5898 5899 5899 5899 5898 5896 5895 5893 5891 5890 5893 5896 5898 5900 5901 5902 5903 5905 5906 5907 5907 5908 5909 5910 5911 5911 5912 5912 5912 5913 5913 5914 5914 5915 5915 5915 5915 5915 5916 5917 5918 5920 5921 5921 5922 5922 5922 5922 5922 5922 5922 5923 5923 5924 5923 5923 5923 5922 5922 5922 5922 5921 5921 5920 5920 5920 5920 5920 5920 5921 5922 5923 5924 5924 5925 5925 5926 5926 5927 5927 5928 5928 5929 5929 5929 5929 5928 5928 5928 5927 5927 5926 5927 5928
5896 5896 5897 5898 5899 5899 5899 5898 5897 5895 5894 5892 5891 5894 5897 5899 5900 5901 5902 5903 5905 5906 5907 5908 5908 5910 5911 5911 5912 5913 5913 5913 5914 5914 5914 5915 5916 5916 5916 5916 5916 5916 5917 5919 5920 5921 5922 5922 5922 5922 5922 5923 5923 5923 5924 5924 5925 5924 5924 5924 5924 5924 5923 5923 5923 5922 5922 5922 5921 5922 5922 5921 5921 5922 5924 5925 5925 5926 5927 5927 5928 5929 5929 5929 5929 5930 5930 5930 5930 5930 5930 5929 5930 5929 5929 5929 5929
5896 5896 5897 5898 5898 5899 5899 5898 5897 5896 5895 5894 5895 5896 5898 5900 5901 5903 5903 5904 5905 5907 5908 5908 5909 5910 5911 5912 5912 5913 5913 5913 5914 5915 5915 5916 5916 5916 5916 5917 5917 5917 5918 5919 5921 5922 5922 5923 5923 5923 5923 5923 5924 5924 5925 5925 5926 5925 5925 5925 5925 5925 5925 5924 5924 5924 5923 5923 5923 5924 5924 5923 5923 5924 5925 5926 5927 5928 5929 5930 5930 5930 5930 5931 5931 5932 5931 5931 5930 5930 5930 5931 5933 5933 5931 5930 5930
5895 5896 5897 5898 5898 5898 5899 5898 5897 5897 5896 5896 5897 5898 5899 5901 5902 5903 5904 5904 5905 5907 5908 5909 5910 5911 5912 5912 5913 5914 5913 5914 5914 5915 5916 5916 5917 5917 5917 5918 5918 5918 5919 5920 5921 5922 5923 5924 5924 5924 5924 5924 5925 5925 5926 5927 5927 5927 5927 5927 5927 5926 5926 5926 5926 5925 5925 5925 5925 5925 5925 5925 5925 5925 5926 5927 5929 5930 5931 5932 5932 5931 5932 5932 5933 5933 5933 5932 5931 5930 5931 5932 5934 5933 5932 5932 5933
5894 5896 5897 5898 5898 5898 5898 5898 5898 5898 5898 5898 5898 5899 5900 5901 5902 5904 5904 5905 5906 5907 5908 5909 5910 5912 5913 5913 5914 5914 5914 5914 5915 5915 5916 5917 5917 5917 5918 5918 5919 5919 5920 5921 5922 5923 5924 5925 5925 5925 5925 5926 5926 5927 5927 5928 5928 5928 5928 5928 5928 5928 5928 5928 5928 5927 5927 5926 5926 5926 5927 5927 5927 5927 5928 5929 5929 5931 5931 5932 5932 5932 5933 5933 5934 5935 5934 5934 5933 5933 5933 5933 5934 5934 5934 5935 5935
5894 5896 5897 5898 5898 5898 5898 5898 5898 5898 5899 5899 5899 5900 5901 5902 5903 5904 5905 5906 5907 5908 5909 5910 5911 5912 5913 5914 5915 5915 5915 5915 5915 5916 5917 5918 5918 5918 5919 5919 5920 5920 5921 5922 5923 5924 5925 5925 5926 5926 5927 5927 5927 5928 5929 5929 5930 5930 5930 5930 5929 5929 5929 5929 5929 5929 5928 5928 5928 5928 5928 5928 5929 5929 5930 5930 5931 5932 5932 5933 5933 5934 5935 5935 5935 5935 5935 5935 5935 5936 5936 5936 5937 5937 5937 5937 5937
5894 5895 5897 5898 5898 5898 5898 5898 5899 5899 5899 5899 5900 5901 5903 5904 5904 5904 5905 5906 5908 5909 5910 5911 5912 5912 5912 5913 5915 5916 5916 5916 5916 5917 5918 5919 5919 5919 5919 5920 5921 5921 5921 5922 5923 5924 5925 5926 5927 5927 5928 5928 5929 5929 5930 5930 5931 5931 5931 5931 5931 5931 5931 5931 5931 5931 5930 5930 5930 5930 5930 5930 5931 5931 5931 5932 5933 5933 5934 5934 5934 5935 5936 5937 5936 5936 5935 5935 5936 5937 5937 5938 5938 5938 5938 5938 5937
5893 5895 5896 5898 5898 5898 5898 5898 5899 5899 5899 5899 5899 5901 5903 5905 5906 5905 5906 5907 5908 5909 5910 5910 5911 5912 5912 5913 5915 5917 5917 5916 5917 5918 5919 5919 5920 5920 5920 5920 5921 5921 5922 5922 5923 5924 5926 5926 5927 5928 5929 5929 5930 5930 5931 5931 5932 5932 5932 5932 5932 5932 5932 5932 5932 5932 5932 5932 5932 5932 5932 5932 5932 5933 5933 5934 5934 5935 5935 5936 5936 5936 5937 5938 5938 5938 5938 5937 5937 5937 5938 5938 5937 5938 5938 5938 5937
5893 5894 5896 5897 5898 5898 5898 5898 5899 5899 5900 5900 5899 5900 5902 5904 5905 5906 5906 5907 5907 5908 5909 5910 5911 5912 5912 5913 5915 5917 5917 5917 5918 5918 5919 5920 5920 5921 5921 5921 5921 5922 5922 5923 5923 5925 5926 5927 5928 5929 5930 5930 5931 5931 5932 5932 5933 5933 5934 5934 5934 5934 5934 5934 5934 5934 5934 5934 5934 5934 5934 5934 5934 5935 5935 5935 5936 5936 5937 5937 5937 5937 5937 5938 5940 5941 5941 5940 5940 5939 5939 5938 5938 5939 5939 5939 5939
5892 5894 5895 5897 5897 5898 5898 5898 5899 5899 5900 5900 5899 5899 5901 5902 5904 5906 5907 5907 5908 5909 5910 5911 5911 5912 5912 5913 5915 5917 5917 5918 5918 5919 5920 5920 5921 5921 5922 5922 5923 5923 5923 5923 5924 5926 5927 5928 5929 5930 5930 5931 5932 5933 5933 5933 5934 5934 5935 5935 5935 5935 5935 5935 5936 5936 5936 5936 5936 5935 5936 5936 5936 5936 5936 5937 5937 5937 5938 5938 5938 5938 5938 5939 5940 5941 5942 5942 5942 5941 5941 5941 5941 5941 5941 5941 5941
5892 5893 5895 5896 5897 5898 5898 5899 5899 5899 5900 5900 5899 5899 5901 5902 5904 5906 5908 5908 5909 5910 5911 5912 5912 5913 5913 5914 5915 5916 5918 5918 5919 5920 5920 5920 5921 5922 5923 5923 5924 5924 5924 5925 5925 5927 5928 5929 5930 5930 5931 5932 5933 5933 5934 5934 5935 5936 5936 5937 5937 5937 5937 5937 5937 5937 5938 5938 5938 5937 5937 5937 5938 5938 5938 5938 5938 5939 5939 5940 5940 5940 5940 5940 5940 5941 5941 5942 5942 5942 5942 5943 5943 5942 5942 5942 5943
5891 5893 5894 5896 5897 5898 5898 5899 5899 5900 5900 5901 5900 5900 5902 5903 5904 5906 5908 5909 5910 5911 5912 5912 5913 5914 5914 5915 5915 5916 5918 5919 5920 5920 5921 5921 5922 5923 5924 5924 5925 5925 5925 5926 5926 5928 5929 5930 5931 5931 5932 5933 5933 5934 5935 5935 5936 5937 5937 5938 5938 5938 5938 5938 5939 5939 5939 5939 5939 5939 5939 5939 5939 5939 5940 5940 5940 5940 5941 5941 5941 5942 5942 5942 5942 5942 5942 5942 5943 5943 5944 5944 5944 5944 5944 5944 5944
5891 5892 5894 5896 5897 5898 5898 5899 5899 5900 5901 5901 5902 5902 5902 5903 5904 5906 5908 5909 5910 5911 5912 5913 5913 5914 5915 5916 5916 5917 5918 5920 5920 5921 5921 5922 5922 5923 5924 5925 5925 5926 5926 5926 5927 5928 5930 5931 5931 5932 5933 5933 5934 5935 5936 5936 5937 5938 5938 5939 5939 5939 5939 5940 5940 5940 5940 5941 5941 5941 5941 5941 5941 5941 5941 5941 5942 5942 5942 5942 5943 5943 5943 5943 5943 5943 5944 5944 5944 5944 5945 5945 5945 5945 5946 5946 5946
5890 5892 5893 5895 5896 5897 5898 5899 5900 5900 5901 5902 5903 5903 5903 5904 5905 5906 5907 5909 5910 5911 5912 5913 5914 5914 5915 5916 5917 5917 5918 5920 5921 5921 5921 5922 5922 5923 5924 5925 5925 5926 5927 5927 5928 5929 5930 5931 5932 5933 5933 5934 5935 5936 5937 5937 5938 5939 5939 5940 5940 5940 5941 5941 5941 5941 5942 5942 5942 5942 5942 5942 5942 5942 5942 5943 5943 5943 5943 5944 5944 5944 5945 5945 5945 5945 5945 5945 5946 5946 5946 5946 5947 5947 5948 5948 5948
5889 5891 5893 5894 5895 5896 5897 5899 5900 5901 5902 5902 5903 5903 5904 5905 5906 5907 5908 5909 5910 5911 5912 5913 5914 5914 5915 5916 5917 5918 5919 5920 5921 5921 5921 5922 5922 5923 5924 5925 5925 5926 5927 5928 5928 5929 5930 5932 5933 5933 5934 5935 5936 5936 5937 5938 5939 5939 5940 5941 5941 5941 5942 5942 5942 5942 5943 5943 5943 5943 5943 5943 5944 5944 5944 5944 5944 5945 5945 5945 5946 5946 5946 5946 5946 5946 5947 5947 5947 5948 5948 5948 5949 5949 5950 5950 5950
5888 5890 5892 5893 5895 5895 5897 5898 5899 5900 5902 5903 5903 5904 5904 5904 5906 5907 5907 5909 5910 5911 5912 5913 5914 5914 5915 5916 5917 5918 5919 5920 5921 5921 5921 5922 5922 5922 5923 5924 5925 5926 5927 5928 5929 5930 5931 5932 5933 5934 5934 5935 5936 5937 5938 5939 5939 5940 5941 5941 5942 5942 5943 5943 5943 5944 5944 5944 5944 5944 5944 5944 5945 5945 5945 5945 5946 5946 5946 5947 5947 5947 5947 5947 5948 5948 5948 5949 5949 5949 5949 5950 5950 5951 5951 5952 5952
5887 5889 5891 5892 5894 5894 5896 5897 5899 5900 5901 5902 5903 5904 5904 5904 5905 5906 5907 5908 5910 5911 5912 5913 5914 5914 5915 5916 5917 5918 5919 5920 5921 5921 5921 5922 5922 5922 5923 5924 5925 5926 5927 5928 5929 5930 5931 5932 5933 5934 5935 5936 5937 5938 5938 5939 5940 5941 5941 5942 5943 5943 5943 5944 5944 5944 5945 5945 5945 5945 5945 5945 5946 5946 5947 5947 5947 5947 5948 5948 5948 5948 5949 5949 5949 5950 5950 5950 5951 5951 5951 5951 5951 5952 5952 5953 5953
5886 5888 5889 5891 5892 5894 5895 5897 5898 5899 5901 5902 5903 5904 5904 5904 5905 5906 5907 5908 5909 5911 5912 5913 5913 5914 5915 5916 5917 5917 5919 5920 5921 5921 5921 5922 5922 5923 5923 5924 5926 5926 5927 5929 5929 5930 5931 5932 5933 5934 5935 5936 5937 5938 5939 5939 5940 5941 5942 5943 5943 5944 5944 5944 5945 5945 5946 5946 5946 5946 5946 5947 5947 5947 5948 5948 5949 5949 5949 5949 5950 5950 5950 5950 5951 5951 5951 5952 5952 5952 5952 5953 5953 5954 5954 5954 5955
5884 5886 5888 5890 5891 5893 5894 5896 5897 5898 5900 5901 5903 5904 5904 5904 5904 5905 5907 5907 5909 5910 5911 5912 5913 5914 5915 5916 5917 5918 5919 5920 5921 5921 5921 5922 5923 5923 5924 5925 5925 5926 5927 5929 5929 5930 5931 5932 5933 5934 5935 5936 5937 5938 5939 5940 5940 5941 5942 5943 5944 5944 5945 5945 5946 5946 5946 5947 5947 5947 5947 5948 5948 5948 5949 5949 5950 5950 5950 5950 5951 5951 5952 5952 5952 5953 5953 5953 5954 5954 5954 5954 5955 5955 5956 5956 5956
5883 5885 5887 5889 5890 5892 5893 5894 5896 5897 5899 5901 5902 5903 5904 5904 5904 5905 5906 5907 5908 5909 5911 5911 5912 5914 5915 5916 5917 5918 5918 5919 5920 5921 5921 5922 5923 5923 5924 5925 5925 5926 5927 5929 5930 5930 5931 5932 5933 5934 5935 5936 5938 5938 5939 5940 5941 5942 5943 5944 5944 5945 5946 5946 5947 5947 5947 5947 5948 5948 5948 5949 5949 5949 5950 5950 5951 5951 5951 5951 5952 5953 5953 5953 5954 5954 5954 5955 5955 5956 5956 5956 5956 5957 5957 5957 5957
5881 5884 5886 5888 5889 5890 5892 5893 5895 5896 5898 5900 5902 5903 5903 5904 5904 5905 5905 5906 5907 5909 5910 5911 5912 5913 5914 5915 5916 5918 5918 5919 5920 5921 5921 5922 5923 5923 5924 5925 5926 5926 5927 5928 5929 5930 5931 5932 5933 5934 5935 5936 5938 5938 5939 5940 5941 5942 5943 5944 5945 5946 5946 5947 5947 5948 5948 5948 5948 5949 5949 5950 5950 5950 5951 5951 5952 5952 5952 5952 5953 5953 5954 5955 5955 5956 5956 5956 5957 5957 5958 5958 5958 5958 5958 5958 5959
5879 5882 5884 5886 5887 5889 5890 5892 5894 5896 5897 5899 5901 5902 5902 5903 5903 5904 5905 5905 5906 5907 5909 5910 5912 5913 5914 5915 5916 5917 5918 5919 5919 5920 5921 5922 5922 5923 5924 5925 5926 5926 5927 5928 5929 5930 5931 5932 5933 5934 5935 5937 5938 5939 5940 5940 5941 5942 5943 5944 5945 5946 5946 5947 5948 5948 5949 5949 5949 5950 5950 5951 5951 5951 5952 5952 5953 5953 5953 5953 5954 5954 5955 5956 5956 5957 5957 5957 5958 5958 5959 5959 5959 5959 5959 5960 5960
5877 5880 5882 5884 5886 5887 5889 5890 5892 5895 5897 5898 5900 5901 5902 5902 5903 5903 5904 5905 5905 5906 5907 5909 5911 5912 5914 5915 5916 5917 5917 5918 5919 5919 5920 5921 5922 5923 5924 5925 5926 5926 5927 5928 5929 5930 5931 5932 5933 5934 5935 5937 5938 5939 5940 5941 5942 5942 5943 5944 5945 5945 5946 5947 5948 5949 5949 5949 5950 5950 5951 5952 5952 5953 5953 5953 5954 5954 5954 5954 5955 5955 5956 5956 5957 5958 5958 5958 5959 5959 5960 5960 5960 5960 5960 5961 5961
5875 5877 5880 5882 5884 5886 5887 5889 5891 5893 5895 5897 5899 5900 5901 5902 5902 5903 5903 5904 5905 5906 5907 5908 5910 5912 5913 5915 5915 5916 5917 5917 5918 5919 5920 5921 5922 5923 5924 5924 5925 5926 5927 5928 5928 5930 5931 5932 5933 5935 5936 5937 5938 5939 5940 5941 5942 5943 5943 5944 5944 5945 5946 5947 5948 5949 5949 5950 5951 5951 5952 5952 5953 5953 5954 5954 5954 5955 5955 5955 5955 5956 5956 5957 5958 5958 5959 5959 5960 5960 5960 5961 5961 5961 5961 5962 5962
5871 5874 5878 5880 5882 5884 5886 5887 5889 5891 5894 5896 5898 5899 5900 5901 5901 5902 5902 5904 5905 5906 5907 5908 5909 5911 5913 5914 5915 5916 5916 5917 5918 5919 5920 5921 5922 5922 5923 5924 5925 5926 5927 5927 5928 5929 5930 5932 5933 5934 5936 5937 5938 5939 5940 5941 5942 5943 5943 5944 5944 5945 5946 5947 5948 5949 5950 5950 5951 5952 5952 5953 5953 5954 5954 5954 5955 5955 5955 5956 5956 5956 5957 5957 5958 5959 5959 5960 5960 5961 5961 5961 5962 5962 5963 5963 5963
5868 5871 5875 5878 5880 5882 5883 5885 5887 5890 5893 5895 5896 5897 5898 5899 5900 5901 5903 5904 5905 5905 5906 5907 5908 5909 5911 5913 5914 5915 5916 5917 5918 5919 5920 5921 5922 5922 5923 5924 5924 5925 5926 5927 5928 5929 5930 5931 5932 5934 5935 5936 5937 5939 5939 5940 5942 5943 5944 5944 5945 5945 5946 5947 5948 5949 5950 5951 5951 5952 5953 5953 5953 5954 5954 5954 5955 5955 5956 5956 5956 5956 5957 5958 5958 5959 5959 5960 5961 5961 5961 5962 5962 5963 5963 5964 5964
5865 5869 5872 5875 5877 5879 5881 5883 5885 5888 5890 5892 5894 5895 5897 5898 5900 5902 5903 5904 5904 5904 5905 5906 5907 5908 5909 5911 5913 5915 5916 5916 5918 5919 5920 5921 5922 5922 5923 5923 5924 5925 5926 5927 5928 5929 5930 5931 5932 5933 5935 5936 5937 5938 5939 5941 5942 5943 5944 5945 5946 5946 5946 5947 5948 5949 5950 5951 5952 5952 5953 5953 5954 5954 5954 5955 5955 5955 5956 5956 5956 5956 5957 5958 5958 5959 5960 5960 5961 5961 5962 5962 5963 5963 5964 5964 5964
5863 5866 5869 5873 5875 5877 5878 5881 5883 5885 5888 5890 5892 5894 5896 5898 5900 5901 5903 5903 5903 5904 5906 5907 5907 5908 5909 5909 5911 5913 5915 5916 5917 5918 5919 5920 5921 5922 5922 5923 5924 5924 5925 5927 5928 5928 5929 5931 5932 5933 5934 5935 5937 5938 5940 5941 5942 5944 5945 5946 5946 5947 5947 5948 5948 5949 5950 5951 5952 5952 5953 5954 5954 5954 5954 5955 5955 5955 5956 5956 5956 5957 5957 5958 5959 5959 5960 5960 5961 5961 5962 5963 5963 5964 5964 5964 5965
5860 5863 5867 5870 5873 5874 5875 5878 5881 5883 5885 5888 5890 5893 5895 5897 5899 5901 5901 5901 5902 5904 5906 5908 5908 5908 5909 5909 5910 5911 5913 5914 5915 5917 5918 5919 5920 5921 5922 5922 5923 5924 5925 5926 5927 5928 5929 5930 5931 5932 5933 5935 5936 5938 5940 5941 5942 5944 5945 5946 5947 5947 5948 5948 5948 5949 5950 5951 5952 5953 5953 5954 5954 5955 5955 5955 5955 5956 5956 5956 5957 5957 5958 5958 5959 5959 5960 5960 5961 5962 5962 5963 5963 5964 5964 5965 5965
5858 5861 5864 5868 5870 5872 5873 5876 5878 5881 5883 5886 5889 5892 5894 5896 5897 5899 5900 5901 5903 5905 5907 5908 5908 5909 5910 5910 5910 5911 5912 5913 5915 5916 5917 5918 5919 5920 5921 5922 5922 5923 5924 5925 5926 5927 5928 5929 5930 5931 5933 5934 5936 5937 5939 5941 5942 5944 5944 5945 5946 5946 5946 5946 5947 5948 5950 5951 5952 5953 5954 5954 5954 5955 5955 5955 5956 5956 5956 5957 5957 5958 5958 5959 5959 5960 5960 5961 5961 5962 5963 5963 5964 5964 5964 5965 5966
5856 5859 5862 5866 5868 5869 5870 5873 5876 5879 5881 5884 5887 5890 5892 5894 5895 5896 5898 5900 5902 5904 5906 5907 5908 5909 5910 5910 5910 5910 5912 5913 5914 5915 5916 5917 5918 5919 5920 5921 5922 5922 5923 5925 5926 5927 5928 5929 5930 5931 5932 5934 5935 5937 5939 5940 5942 5943 5944 5944 5945 5945 5945 5946 5946 5948 5950 5951 5952 5954 5954 5954 5955 5955 5955 5956 5956 5956 5957 5957 5958 5959 5959 5959 5960 5960 5961 5961 5962 5963 5963 5963 5964 5964 5965 5965 5966
5854 5858 5861 5863 5865 5866 5868 5871 5874 5876 5878 5881 5885 5888 5890 5892 5893 5894 5896 5899 5901 5903 5904 5905 5907 5908 5909 5909 5908 5909 5910 5912 5913 5915 5916 5917 5918 5919 5920 5920 5921 5922 5923 5924 5925 5926 5927 5928 5929 5930 5932 5933 5935 5937 5938 5940 5941 5942 5943 5943 5944 5945 5945 5946 5947 5948 5949 5951 5952 5954 5955 5955 5955 5955 5955 5956 5956 5957 5957 5958 5958 5959 5959 5960 5960 5961 5961 5962 5962 5963 5963 5964 5964 5965 5965 5966 5967
5853 5856 5858 5860 5862 5865 5867 5868 5871 5873 5875 5878 5882 5886 5889 5890 5891 5892 5895 5897 5898 5899 5900 5901 5903 5904 5905 5907 5907 5908 5908 5910 5911 5913 5915 5916 5917 5918 5919 5920 5920 5921 5922 5924 5925 5926 5926 5927 5928 5930 5931 5933 5934 5936 5938 5939 5940 5941 5942 5943 5944 5944 5946 5947 5948 5948 5949 5950 5952 5953 5955 5955 5956 5956 5955 5956 5956 5957 5957 5958 5958 5959 5960 5960 5961 5961 5961 5962 5962 5963 5963 5964 5964 5965 5966 5967 5967
5852 5854 5855 5857 5860 5862 5864 5865 5868 5870 5872 5876 5881 5884 5886 5887 5889 5891 5893 5895 5896 5897 5898 5899 5900 5901 5902 5903 5904 5905 5907 5908 5910 5912 5913 5914 5916 5917 5918 5919 5919 5921 5922 5923 5924 5925 5926 5927 5928 5929 5930 5932 5933 5935 5937 5938 5940 5941 5942 5943 5944 5945 5946 5946 5947 5948 5949 5950 5951 5953 5954 5955 5956 5956 5956 5956 5956 5957 5957 5958 5958 5959 5960 5961 5961 5961 5962 5962 5963 5963 5963 5964 5964 5965 5966 5967 5967
5849 5851 5852 5854 5857 5859 5861 5863 5865 5867 5870 5874 5878 5882 5884 5885 5887 5889 5892 5894 5895 5896 5898 5899 5900 5900 5901 5900 5901 5902 5903 5905 5908 5910 5911 5912 5914 5915 5916 5918 5919 5920 5921 5922 5923 5925 5926 5927 5927 5928 5929 5930 5932 5934 5936 5938 5939 5940 5942 5943 5944 5945 5945 5946 5946 5947 5949 5950 5951 5952 5954 5955 5955 5956 5956 5956 5956 5957 5958 5958 5958 5959 5960 5961 5961 5962 5962 5963 5963 5963 5964 5964 5965 5965 5966 5967 5968
5845 5847 5848 5850 5852 5855 5858 5860 5863 5864 5868 5872 5876 5879 5881 5882 5884 5887 5889 5892 5893 5895 5897 5898 5899 5900 5900 5900 5901 5901 5901 5902 5904 5907 5909 5910 5912 5914 5915 5917 5919 5920 5921 5922 5923 5924 5925 5926 5927 5928 5929 5930 5931 5933 5935 5937 5939 5940 5941 5942 5944 5944 5945 5945 5946 5947 5948 5949 5950 5952 5953 5954 5955 5955 5956 5956 5957 5957 5958 5958 5959 5960 5960 5961 5962 5962 5963 5963 5963 5964 5964 5964 5965 5966 5967 5967 5968
5841 5842 5844 5846 5849 5851 5854 5857 5859 5861 5866 5870 5873 5876 5878 5879 5882 5885 5887 5889 5891 5893 5895 5897 5898 5899 5900 5901 5901 5901 5901 5901 5902 5904 5906 5908 5910 5912 5914 5916 5918 5920 5921 5922 5922 5923 5924 5925 5926 5927 5928 5929 5930 5932 5934 5936 5938 5939 5940 5942 5943 5944 5944 5945 5945 5946 5947 5949 5950 5951 5952 5953 5954 5955 5956 5957 5958 5958 5958 5959 5959 5960 5960 5961 5962 5963 5963 5964 5964 5964 5964 5965 5966 5966 5967 5968 5968
5837 5839 5841 5843 5845 5848 5850 5853 5856 5859 5864 5868 5871 5873 5874 5876 5880 5882 5884 5886 5889 5892 5894 5895 5897 5898 5899 5900 5900 5901 5901 5901 5902 5903 5904 5906 5908 5909 5912 5914 5916 5918 5920 5921 5921 5922 5923 5924 5925 5926 5927 5928 5929 5931 5933 5935 5937 5938 5940 5941 5942 5943 5943 5944 5945 5946 5947 5948 5950 5951 5952 5953 5954 5955 5957 5958 5959 5959 5959 5959 5959 5960 5960 5961 5962 5963 5963 5964 5964 5964 5965 5965 5966 5967 5967 5968 5969
5835 5837 5839 5841 5842 5844 5847 5850 5853 5857 5862 5865 5868 5870 5872 5874 5877 5879 5881 5884 5887 5889 5892 5894 5895 5897 5898 5899 5899 5900 5900 5901 5901 5902 5903 5905 5907 5908 5910 5911 5913 5915 5917 5919 5920 5921 5922 5923 5924 5925 5926 5927 5929 5930 5932 5934 5935 5937 5939 5940 5941 5942 5942 5943 5944 5945 5946 5948 5949 5950 5951 5953 5954 5956 5957 5958 5959 5960 5960 5960 5960 5960 5961 5961 5962 5962 5963 5964 5965 5965 5965 5965 5966 5967 5968 5968 5969
5833 5835 5837 5840 5842 5844 5846 5849 5854 5858 5860 5863 5866 5867 5869 5871 5874 5876 5879 5882 5884 5887 5890 5892 5894 5895 5897 5898 5899 5899 5900 5901 5902 5902 5903 5904 5905 5907 5908 5909 5911 5912 5914 5916 5918 5920 5921 5922 5923 5924 5925 5926 5928 5929 5931 5932 5934 5936 5938 5939 5941 5941 5942 5942 5943 5944 5946 5947 5948 5949 5951 5952 5954 5956 5957 5958 5959 5960 5960 5960 5960 5961 5961 5961 5962 5962 5963 5964 5965 5965 5965 5965 5966 5966 5967 5968 5969
5829 5832 5834 5837 5840 5843 5845 5849 5853 5858 5860 5862 5863 5864 5865 5868 5871 5874 5877 5879 5882 5885 5887 5890 5892 5894 5895 5897 5898 5900 5901 5902 5903 5904 5904 5904 5905 5906 5907 5908 5909 5910 5912 5914 5916 5918 5919 5920 5922 5923 5924 5926 5927 5928 5929 5931 5933 5935 5937 5938 5939 5940 5941 5942 5942 5943 5945 5946 5948 5949 5950 5952 5954 5955 5957 5958 5959 5960 5960 5960 5960 5960 5961 5961 5962 5962 5963 5964 5964 5965 5965 5965 5966 5966 5967 5968 5969
5826 5828 5831 5835 5838 5840 5842 5846 5850 5855 5857 5858 5860 5861 5862 5865 5868 5871 5873 5876 5879 5882 5885 5887 5889 5892 5894 5896 5898 5900 5901 5902 5903 5904 5904 5905 5906 5906 5907 5908 5909 5910 5911 5912 5914 5915 5917 5918 5920 5922 5923 5925 5926 5927 5928 5930 5932 5934 5935 5937 5938 5939 5940 5941 5942 5943 5944 5946 5947 5948 5950 5951 5953 5954 5956 5957 5958 5959 5960 5960 5960 5960 5960 5961 5961 5962 5963 5964 5964 5965 5965 5965 5966 5966 5967 5968 5969
5823 5826 5830 5833 5835 5837 5839 5842 5846 5850 5852 5854 5856 5858 5860 5863 5865 5867 5870 5873 5876 5879 5882 5885 5887 5890 5892 5894 5897 5899 5900 5901 5902 5902 5903 5904 5905 5906 5906 5906 5907 5908 5909 5909 5911 5912 5914 5916 5917 5919 5922 5923 5924 5926 5927 5929 5931 5932 5934 5936 5937 5938 5939 5940 5941 5942 5943 5945 5946 5948 5949 5950 5951 5953 5955 5956 5957 5958 5959 5960 5960 5960 5960 5961 5961 5962 5962 5963 5964 5965 5965 5965 5966 5966 5967 5968 5969
5820 5824 5827 5829 5831 5833 5837 5839 5842 5845 5848 5850 5853 5856 5858 5860 5862 5865 5868 5871 5873 5876 5879 5882 5885 5888 5890 5892 5895 5897 5898 5899 5900 5901 5902 5902 5904 5904 5904 5904 5905 5905 5906 5907 5908 5910 5912 5913 5915 5917 5919 5921 5922 5924 5926 5928 5929 5931 5933 5934 5935 5936 5937 5939 5940 5941 5943 5944 5945 5947 5948 5949 5950 5952 5953 5955 5956 5958 5959 5959 5960 5960 5960 5960 5961 5961 5962 5963 5964 5964 5965 5965 5966 5966 5967 5968 5969
5817 5820 5823 5825 5828 5831 5834 5836 5839 5842 5845 5847 5850 5853 5855 5857 5859 5862 5865 5868 5871 5874 5877 5880 5882 5885 5887 5890 5892 5894 5895 5897 5898 5899 5900 5900 5902 5902 5903 5903 5904 5904 5904 5905 5906 5907 5909 5910 5912 5914 5916 5918 5920 5922 5924 5926 5928 5929 5931 5932 5934 5935 5936 5937 5939 5940 5941 5942 5944 5945 5947 5948 5949 5951 5952 5954 5955 5957 5958 5959 5960 5960 5960 5960 5960 5961 5961 5962 5963 5964 5964 5965 5966 5966 5967 5968 5969
5813 5816 5818 5821 5825 5828 5831 5834 5836 5839 5842 5844 5847 5850 5852 5855 5856 5859 5862 5865 5868 5871 5874 5877 5879 5882 5885 5887 5889 5891 5893 5894 5896 5897 5898 5899 5900 5901 5901 5903 5904 5904 5905 5905 5905 5905 5906 5907 5909 5911 5912 5914 5917 5919 5922 5924 5926 5928 5929 5931 5932 5933 5934 5936 5937 5939 5940 5941 5943 5944 5946 5947 5948 5950 5951 5952 5954 5955 5957 5958 5959 5960 5960 5960 5960 5960 5961 5961 5962 5963 5964 5965 5965 5966 5967 5968 5969
5810 5813 5816 5818 5821 5824 5827 5830 5832 5835 5838 5841 5844 5847 5849 5852 5855 5857 5860 5863 5866 5868 5871 5874 5876 5879 5881 5884 5886 5888 5890 5891 5893 5894 5896 5897 5898 5899 5900 5902 5903 5904 5904 5905 5905 5905 5905 5905 5907 5909 5910 5911 5912 5915 5917 5920 5922 5925 5927 5928 5930 5932 5933 5934 5936 5937 5938 5940 5941 5942 5944 5946 5947 5948 5949 5951 5952 5954 5956 5957 5958 5959 5960 5960 5960 5960 5960 5961 5961 5962 5963 5964 5965 5966 5967 5968 5969